Weather History for Livingston, MT

Change the Weather History Date:

Thursday, August 1, 2013

  Actual Average Record
Temperature  
Mean Temperature 71 °F 68 °F  
Max Temperature 83 °F 87 °F 101 °F (2000)
Min Temperature 58 °F 50 °F 37 °F (2001)
Degree Days  
Heating Degree Days 0 1  
Month to date heating degree days 1  
Since 1 June heating degree days 258  
Since 1 July heating degree days 51  
Cooling Degree Days 6 4  
Month to date cooling degree days 6 4  
Year to date cooling degree days 242 133  
Since 1 June cooling degree days 234 132  
Growing Degree Days 20 (Base 50)    
Moisture  
Dew Point 48 °F    
Average Humidity 48    
Maximum Humidity 67    
Minimum Humidity 28    
Precipitation  
Precipitation 0.01 in 0.04 in 0.89 in (1976)
Month to date precipitation 0.01 0.04  
Year to date precipitation 7.13 10.16  
Sea Level Pressure  
Sea Level Pressure 29.92 in    
Wind  
Wind Speed 15 mph (East)    
Max Wind Speed 33 mph    
Max Gust Speed 41 mph    
Visibility 10 miles    
Events Thunderstorm    
T = Trace of Precipitation, MM = Missing Value Source: NWS Daily Summary

Daily Weather History Graph

Daily Weather History Graph

Search for Another Location

Airport:

Trip Planner

Search our weather history database for the weather conditions in past years. The results will help you decide how hot, cold, wet, or windy it might be!

Date:

Astronomy

Aug. 01, 2013 Rise Set
Actual Time 6:05 AM MDT 8:49 PM MDT
Civil Twilight 5:31 AM MDT 9:24 PM MDT
Nautical Twilight 4:47 AM MDT 10:07 PM MDT
Astronomical Twilight 3:56 AM MDT 10:57 PM MDT
Moon 1:42 AM MDT 5:03 PM MDT
Length of Visible Light 15h 52m
Length of Day
14h 44m
Waning Crescent, 23% of the Moon is Illuminated
Aug 1
Waning Crescent
Aug 6
New
Aug 14
First Quarter
Aug 20
Full
Aug 28
Last Quarter

Hourly Weather History & Observations

Time (MDT) Temp. Dew Point Humidity Pressure Visibility Wind Dir Wind Speed Gust Speed Precip Events Conditions
12:53 AM 66.0 °F 46.0 °F 48% 29.99 in 10.0 mi Calm Calm - N/A   Clear
1:53 AM 69.1 °F 46.0 °F 44% 29.98 in 10.0 mi SSW 12.7 mph 23.0 mph N/A   Unknown
2:53 AM 62.1 °F 46.9 °F 58% 29.99 in 10.0 mi East 3.5 mph - N/A   Clear
3:53 AM 62.1 °F 46.9 °F 58% 29.96 in 10.0 mi East 3.5 mph - N/A   Clear
4:53 AM 61.0 °F 46.0 °F 58% 29.95 in 10.0 mi ESE 4.6 mph - N/A   Clear
5:53 AM 59.0 °F 46.9 °F 64% 29.94 in 10.0 mi ENE 3.5 mph - N/A   Clear
6:53 AM 59.0 °F 48.0 °F 67% 29.96 in 10.0 mi Calm Calm - N/A   Partly Cloudy
7:53 AM 61.0 °F 48.9 °F 64% 29.97 in 10.0 mi North 5.8 mph - N/A   Scattered Clouds
8:49 AM 62.6 °F 48.2 °F 59% 30.12 in 10.0 mi WNW 6.9 mph - N/A Thunderstorm Partly Cloudy
8:53 AM 63.0 °F 48.0 °F 58% 29.99 in 10.0 mi WSW 6.9 mph - N/A Thunderstorm Partly Cloudy
9:21 AM 62.6 °F 50.0 °F 63% 30.08 in 10.0 mi North 6.9 mph - N/A   Scattered Clouds
9:53 AM 66.0 °F 48.0 °F 52% 29.97 in 10.0 mi Calm Calm - N/A   Clear
10:53 AM 70.0 °F 50.0 °F 49% 29.96 in 10.0 mi ESE 12.7 mph - N/A   Partly Cloudy
11:16 AM 71.6 °F 48.2 °F 43% 30.06 in 10.0 mi East 17.3 mph 23.0 mph N/A Thunderstorm Thunderstorm
11:31 AM 73.4 °F 48.2 °F 41% 30.05 in 10.0 mi East 20.7 mph - N/A   Partly Cloudy
11:53 AM 73.0 °F 48.9 °F 42% 29.91 in 10.0 mi East 19.6 mph 27.6 mph N/A   Partly Cloudy
12:53 PM 77.0 °F 48.0 °F 36% 29.88 in 10.0 mi East 17.3 mph 26.5 mph N/A   Clear
1:53 PM 81.0 °F 46.9 °F 30% 29.83 in 10.0 mi ENE 21.9 mph 28.8 mph N/A   Clear
2:53 PM 77.0 °F 46.0 °F 33% 29.81 in 10.0 mi East 20.7 mph - N/A   Clear
3:04 PM 75.2 °F 46.4 °F 36% 29.94 in 10.0 mi East 20.7 mph 26.5 mph N/A Thunderstorm Partly Cloudy
3:19 PM 77.0 °F 46.4 °F 34% 29.97 in 10.0 mi East 16.1 mph 28.8 mph N/A   Scattered Clouds
3:53 PM 82.0 °F 46.9 °F 29% 29.77 in 10.0 mi East 29.9 mph 40.3 mph N/A   Clear
4:53 PM 80.1 °F 46.9 °F 31% 29.74 in 10.0 mi East 28.8 mph 38.0 mph N/A   Clear
5:31 PM 77.0 °F 46.4 °F 34% 29.86 in 10.0 mi East 27.6 mph 40.3 mph N/A Thunderstorm Clear
5:46 PM 75.2 °F 48.2 °F 38% 29.85 in 10.0 mi East 29.9 mph 39.1 mph N/A   Clear
5:53 PM 75.9 °F 48.0 °F 37% 29.71 in 10.0 mi East 33.4 mph 41.4 mph N/A   Clear
6:07 PM 75.2 °F 48.2 °F 38% 29.85 in 10.0 mi East 27.6 mph 40.3 mph N/A Thunderstorm Clear
6:22 PM 75.2 °F 48.2 °F 38% 29.93 in 10.0 mi ENE 18.4 mph 29.9 mph N/A   Clear
6:34 PM 75.2 °F 48.2 °F 38% 29.91 in 10.0 mi ENE 21.9 mph 32.2 mph N/A Thunderstorm Partly Cloudy
6:49 PM 75.2 °F 48.2 °F 38% 29.91 in 10.0 mi ENE 21.9 mph 32.2 mph N/A   Clear
6:53 PM 75.9 °F 48.9 °F 38% 29.81 in 10.0 mi NE 23.0 mph 34.5 mph N/A   Clear
7:09 PM 73.4 °F 48.2 °F 41% 29.96 in 10.0 mi North 21.9 mph 29.9 mph N/A   Clear
7:53 PM 66.0 °F 51.1 °F 59% 29.90 in 10.0 mi West 9.2 mph 17.3 mph N/A   Overcast
8:53 PM 66.9 °F 48.0 °F 51% 29.90 in 10.0 mi ESE 16.1 mph 21.9 mph N/A   Overcast
9:53 PM 66.0 °F 48.0 °F 52% 29.90 in 10.0 mi SE 18.4 mph 25.3 mph N/A   Overcast
10:53 PM 64.9 °F 50.0 °F 58% 29.90 in 10.0 mi East 19.6 mph 28.8 mph N/A   Overcast
11:46 PM 62.6 °F 51.8 °F 68% 30.01 in 10.0 mi East 21.9 mph 32.2 mph 0.00 in   Overcast
11:53 PM 62.1 °F 51.1 °F 67% 29.89 in 10.0 mi East 25.3 mph 32.2 mph 0.00 in   Overcast